Regional Weather Roundup
Issued by NWS

Home | Current Version | Previous Version | Text Only | Print | Product List | Glossary Off
Versions: 1 2 3 4 5 6 7 8 9 10 11 12 13 14 15 16 17 18 19 20 21 22 23 24 25 26 27 28 29 30 31 32 33 34 35 36 37 38 39 40 41 42 43 44 45 46 47 48 49 50

000
ASUS43 KMPX 231810
RWRMN
WEATHER ROUNDUP FOR MINNESOTA
NATIONAL WEATHER SERVICE TWIN CITIES/CHANHASSEN MN
100 PM CDT SUN JUL 23 2017


NOTE: "FAIR" INDICATES FEW OR NO CLOUDS BELOW 12,000 FEET WITH NO
SIGNIFICANT WEATHER AND/OR OBSTRUCTIONS TO VISIBILITY. N/A MEANS
CURRENT SKY AND/OR WEATHER CONDITIONS ARE NOT AVAILABLE.

MNZ060>063-068>070-231900-
   Twin Cities Metro

CITY           SKY/WX    TMP DP  RH WIND       PRES   REMARKS
TWIN CITIES    PTSUNNY   74  58  57 N9        29.94R
6HR MIN TEMP:  69; 6HR MAX TEMP:  75;

ST PAUL        CLOUDY    73  61  65 NW10      29.93R
CRYSTAL        CLOUDY    74  57  55 N10       29.93R
BLAINE         PTSUNNY   75  59  57 NW14G22   29.94R
LAKEVILLE      CLOUDY    72  57  60 N9        29.94S
EDEN PRAIRIE   CLOUDY    74  58  57 N10       29.93R
6HR MIN TEMP:  68; 6HR MAX TEMP:  76;

SOUTH ST PAUL  PTSUNNY   74  58  58 NW8       29.93S
LAKE ELMO      PTSUNNY   72  59  64 NW15      29.94R
$$
MNZ001>005-007-008-013>017-022>024-027-028-231900-
   Northwest Minnesota

CITY           SKY/WX    TMP DP  RH WIND       PRES   REMARKS
BEMIDJI        CLOUDY    67  58  73 NE9       30.02R
HALLOCK        MOSUNNY   73  63  68 CALM      30.01S
ROSEAU         SUNNY     73  63  68 E6        30.01F
WARROAD        SUNNY     72  64  78 NE7       30.03S
THIEF RVR FALL PTSUNNY   74  60  61 NE12      30.01F
CROOKSTON      PTSUNNY   72  61  68 N5        30.01S
FOSSTON        PTSUNNY   70  61  73 NE6       30.02S
DETROIT LAKES  PTSUNNY   70  59  68 NE8       30.02S
MOORHEAD       PTSUNNY   70  59  68 NW8       30.03R
PARK RAPIDS    CLOUDY    72  58  61 N9        30.00R
MAHNOMEN       CLOUDY    70  61  72 NE7       30.02R
$$
MNZ006-009>011-018-025>026-231900-
   North Central Minnesota

CITY           SKY/WX    TMP DP  RH WIND       PRES   REMARKS
BAUDETTE       MOSUNNY   76  57  51 E7        30.01S
FLAG ISLAND    SUNNY     73  59  60 CALM      30.01S
INTL FALLS     SUNNY     74  53  48 NE10      30.00R
6HR MIN TEMP:  61; 6HR MAX TEMP:  74;

WASKISH        MOSUNNY   73  59  60 CALM      30.00F
BIG FORK       SUNNY     70  59  68 CALM      30.00S
LONGVILLE      CLOUDY    66  59  77 N5        30.00R
GRAND RAPIDS   CLOUDY    65  57  75 CALM      30.01S
CRANE LAKE     MOSUNNY   70  55  60 NE5       30.00S
ORR            MOSUNNY   72  54  53 E5        29.97S
COOK           PTSUNNY   70  57  64 NE6       29.99S
WALKER         CLOUDY    67  58  72 NE8       30.01R
$$
MNZ012-019>021-037-231900-
   Northeast Minnesota

CITY           SKY/WX    TMP DP  RH WIND       PRES   REMARKS
DULUTH         CLOUDY    64  58  80 VRB6      29.98R
6HR MIN TEMP:  54; 6HR MAX TEMP:  64; 6HR PCP: TRACE;

ELY            MOSUNNY   68  54  60 NE5       29.98S
HIBBING        CLOUDY    66  59  78 NE9       29.99R
EVELETH        PTSUNNY   66  60  83 NE5       29.99S
DULUTH HARBOR  CLOUDY    64  59  82 NE8       29.98R
TWO HARBORS    CLOUDY    66  61  82 E7        29.96S
SILVER BAY     CLOUDY    63  61  94 E8        29.96R FOG
GRAND MARAIS     N/A     62  54  74 E6        29.96R
G MARAIS ARPRT PTSUNNY   70  52  52 N12       29.99S
$$
MNZ029>031-032-039>041-046>048-054>057-064-231900-
   West Central Minnesota

CITY           SKY/WX    TMP DP  RH WIND       PRES   REMARKS
FERGUS FALLS   CLOUDY    66  59  77 NW9       30.01S
WHEATON        CLOUDY    68  57  68 N9        30.04S
MORRIS         MOSUNNY   72  59  64 N15       30.01R
ALEXANDRIA     CLOUDY    71  59  65 NW10      30.02R
ELBOW LAKE     CLOUDY    68  59  74 W10       30.02S
WADENA         CLOUDY    70  57  64 N5        30.00S
GLENWOOD       MOSUNNY   70  57  64 N7        30.01S
APPLETON       CLOUDY    70  57  64 NW12      30.01S
BENSON         CLOUDY    72  59  64 N7        30.02S
ORTONVILLE     CLOUDY    70  59  68 N12       30.02F
MADISON        CLOUDY    73  61  64 N14G24    30.02S
WILLMAR        FAIR      72  61  68 NW12      30.01R
$$
MNZ033>034-036-042>043-049>051-058-059-231900-
   Central Minnesota

CITY           SKY/WX    TMP DP  RH WIND       PRES   REMARKS
ST CLOUD       CLOUDY    71  61  70 N9        29.97R
6HR MIN TEMP:  61; 6HR MAX TEMP:  71;

SAUK CENTRE    CLOUDY    69  58  67 N8        29.99S
PAYNESVILLE    CLOUDY    72  58  62 NW10      29.99S
AITKIN         CLOUDY    70  59  68 N6        29.97S
PINE RIVER     CLOUDY    70  57  64 N13       30.03R
BRAINERD       CLOUDY    69  58  67 N9        29.99R
STAPLES        CLOUDY    72  55  56 N12       29.99S
LONG PRAIRIE   CLOUDY    70  59  68 N7        30.00S
LITTLE FALLS   CLOUDY    70  57  64 NW10      29.98S
LITCHFIELD     PTSUNNY   73  61  64 NW8       29.99R
BUFFALO        CLOUDY    71  57  60 N7        29.97R
MAPLE LAKE     CLOUDY    73  61  65 N8        29.98R
HUTCHINSON     CLOUDY    72  60  66 NW12      29.99R
$$
MNZ037-044-045-052-053-231900-
   East Central Minnesota

CITY           SKY/WX    TMP DP  RH WIND       PRES   REMARKS
PRINCETON      PTSUNNY   73  63  68 NW7       29.96R
MORA           PTSUNNY   70  57  64 N6        29.98R
CAMBRIDGE      PTSUNNY   73  57  56 N8        29.93S
RUSH CITY      CLOUDY    70  60  71 N9        29.96R
MOOSE LAKE     CLOUDY    66  57  72 CALM      29.96R
HINCKLEY       CLOUDY    70  59  68 N10G16    29.96S
CLOQUET        CLOUDY    64  55  72 E5        29.98R
MCGREGOR       CLOUDY    68  57  68 N9        29.99R
$$
MNZ071>073-080-081-089-090-097-098-231900-
   Southwest Minnesota

CITY           SKY/WX    TMP DP  RH WIND       PRES   REMARKS
MONTEVIDEO     PTSUNNY   75  61  60 NE15      30.01S
GRANITE FALLS  PTSUNNY   73  60  64 NW14G21   30.02S
CANBY          PTSUNNY   76  58  53 NW14G20   30.02F
MARSHALL       PTSUNNY   71  59  65 N14       30.01S
REDWOOD FALLS  CLOUDY    73  57  57 NW12      29.99R
OLIVIA         CLOUDY    72  59  64 N14       29.99R
PIPESTONE      MOSUNNY   75  57  53 N14G21    30.02S
WINDOM         SUNNY     72  57  60 NW16G22   30.01R
WORTHINGTON    MOSUNNY   76  59  55 NW15      30.02S
JACKSON        MOSUNNY   72  59  64 NW16G25   30.00S
SLAYTON        HVY RAIN  71  59  65 N12G22    30.03R
$$
MNZ065>067-074>077-082>085-091>093-231900-
   South Central Minnesota

CITY           SKY/WX    TMP DP  RH WIND       PRES   REMARKS
MANKATO        CLOUDY    72  59  63 NW16      29.96R
NEW ULM        PTSUNNY   72  57  60 NW13      29.97S
ST JAMES       MOSUNNY   72  59  64 NW16G22   29.99R
FAIRMONT       PTSUNNY   73  61  65 NW14G21   29.98R
GLENCOE        CLOUDY    72  62  72 NW8       29.96S
FARIBAULT      PTSUNNY   73  61  64 NW9       29.94S
OWATONNA       PTSUNNY   75  63  64 NW10      29.94S
WASECA         PTSUNNY   72  61  68 NW10      29.96S
ALBERT LEA     SUNNY     73  59  60 NW13      29.94F
$$
MNZ078>079-086>088-094>096-231900-
   Southeast Minnesota

CITY           SKY/WX    TMP DP  RH WIND       PRES   REMARKS
ROCHESTER      PTSUNNY   74  61  63 N12       29.92S
6HR MIN TEMP:  67; 6HR MAX TEMP:  75;

RED WING       CLOUDY    73  57  56 N8        29.91R
STANTON        CLOUDY    73  59  61 NW8       29.92S
DODGE CENTER   MOSUNNY   73  57  56 NW14G21   29.94R
WINONA         MOSUNNY   73  59  60 NW15      29.89R
AUSTIN         PTSUNNY   73  59  60 NW15      29.93S
PRESTON        MOSUNNY   73  59  61 NW16      29.91S
$$
ABBREVIATIONS USED IN REMARKS
   TC - TEMPERATURES IN CELSIUS
  WCI - WIND CHILL INDEX
   HX - HEAT INDEX
  VSB - VISIBILITY
$$



USA.gov is the U.S. government's official web portal to all federal, state and local government web resources and services.